[[{"header":{"parameterUnit":"m.s-1","parameterCategory":1,"la1":30.2991,"la2":30.254,"lo1":-89.0895,"lo2":-89.0444,"dy":0.0017,"dx":0.0017,"nx":28,"ny":28,"refTime":"2025-05-20T09:00:00:Z","depth":0,"parameterNumber":2,"parameterNumberName":"U-component_of_WINDS"},"data":[0,0,0,0,0,0,0,0,0,0,0,0,0,0,0,0,0,0,0,0,0,0,0,0,0,0,0,0,0,0,0,0,0,0,0,0,0,0,0,0,0,0,0,0,0,0,0,0,0,0,0,0,0,0,0,0,0,0,4.1424,4.1425,0,4.1542,4.1544,4.1545,4.1524,4.1522,4.152,4.1518,4.1639,4.1644,4.165,0,0,0,0,0,0,0,0,0,0,0,0,0,4.1178,4.1182,4.1424,4.1425,4.1427,4.1542,4.1544,4.1545,4.1524,4.1522,4.1519,4.1517,4.1638,4.1644,4.165,0,0,0,0,0,0,0,0,0,0,0,0,0,4.1289,4.1184,4.1423,4.143,4.1432,4.1542,4.1544,4.1546,4.1525,4.1522,4.1519,4.1516,4.1636,4.1643,4.1651,4.1762,0,0,4.1675,4.1678,0,0,0,0,0,0,0,0,4.1283,4.1298,4.1428,4.143,4.1432,4.1515,4.1501,4.1618,4.1526,4.149,4.1518,4.1514,4.1601,4.1611,4.164,4.1767,4.1772,4.1675,4.168,4.1683,4.1686,0,0,0,0,0,0,0,4.1275,4.1293,4.147,4.1429,4.1432,4.1427,4.1439,4.1523,4.1561,4.1493,4.1491,4.1506,4.1601,4.1633,4.1643,4.1774,4.1675,4.1682,4.1687,4.169,4.1995,4.1998,0,0,0,0,0,0,4.1265,4.1287,4.1467,4.1474,4.1348,4.1434,4.1447,4.1492,4.156,4.1568,4.1508,4.1504,4.1621,4.1634,4.1647,4.1779,4.1683,4.1691,4.1695,4.1992,4.1996,4.1999,0,0,0,0,0,0,4.126,4.1282,4.1462,4.138,4.1403,4.1441,4.1491,4.1496,4.1527,4.1572,4.1579,4.1533,4.1619,4.1636,4.1733,4.1783,4.1694,4.1701,4.1988,4.1993,4.1998,4.2044,0,0,0,0,0,0,4.1253,4.128,4.1323,4.1381,4.1407,4.1546,4.1494,4.15,4.1541,4.1536,4.1598,4.1605,4.1618,4.1721,4.174,4.1792,4.1707,4.1983,4.199,4.1996,4.2039,4.2051,4.2061,0,0,0,0,0,4.1245,4.1332,4.1325,4.1347,4.1461,4.1549,4.1564,4.1577,4.1545,4.1588,4.1616,4.1603,4.1775,4.1731,4.1753,4.1807,4.198,4.1988,4.1995,4.2034,4.2048,4.2061,0,0,0,0,0,0,4.1279,4.134,4.1333,4.1442,4.149,4.1545,4.16,4.1593,4.1651,4.1645,4.1659,4.1673,4.177,4.1799,4.1749,4.1916,4.1873,4.1885,4.1894,4.1909,4.1919,4.191,4.1714,0,0,0,0,0,4.1299,4.1365,4.1415,4.1506,4.1531,4.1561,4.16,4.1606,4.1657,4.1677,4.1713,4.1762,4.1827,4.187,4.1932,4.2043,4.2055,4.2091,4.2102,4.2111,4.2121,4.2179,4.2195,4.2025,4.2025,4.2025,0,0,4.1342,4.1383,4.1424,4.1514,4.1552,4.162,4.1579,4.1652,4.1702,4.1688,4.1781,4.1809,4.1865,4.1968,4.2016,4.1995,4.2171,4.2121,4.2128,4.2133,4.2189,4.2205,4.2219,4.203,4.2029,4.2028,0,0,4.1453,4.1492,4.1571,4.161,4.1668,4.1687,4.1706,4.1762,4.178,4.1873,4.1863,4.1923,4.2035,4.2074,4.2109,4.2234,4.2223,4.2254,4.2312,4.2368,4.2381,4.2393,4.2435,4.245,4.2264,4.2264,4.2264,0,4.1498,4.1599,4.1612,4.1686,4.1725,4.1716,4.1795,4.1832,4.1908,4.1934,4.191,4.2049,4.2087,4.2198,4.2228,4.2257,4.2278,4.2246,4.2378,4.239,4.2402,4.2442,4.2458,4.2268,4.2267,4.2267,4.2267,0,4.1651,4.1721,4.1778,4.185,4.1896,4.1972,4.1996,4.204,4.2042,4.2064,4.2158,4.2202,4.2272,4.2299,4.2303,4.2411,4.2395,4.2375,4.2331,4.2421,4.2459,4.2474,4.2272,4.2271,4.227,4.2269,0,0,4.1787,4.1864,4.1885,4.1916,4.1979,4.2033,4.2109,4.2177,4.2213,4.2266,4.2328,4.2423,4.2403,4.2443,4.245,4.25,4.2593,4.2473,4.2475,4.2492,4.2711,4.2725,4.2742,4.2586,4.2589,4.2592,4.2706,0,4.1902,4.2034,4.2047,4.2166,4.2229,4.2221,4.2286,4.2331,4.2353,4.241,4.2435,4.25,4.2471,4.2494,4.2544,4.2571,4.2636,4.2563,4.2643,4.2645,4.2626,4.2763,4.2777,4.2883,4.2721,4.2724,4.2725,0,4.2054,4.2109,4.2233,4.2285,4.2313,4.2371,4.2433,4.2488,4.2539,4.2551,4.2595,4.2595,4.2671,4.2625,4.273,4.2679,4.2713,4.2731,4.2736,4.2742,4.2689,4.277,4.2917,4.2932,4.2749,4.2747,4.2746,0,4.2137,4.2243,4.233,4.2358,4.2422,4.2462,4.2491,4.2538,4.2577,4.2632,4.2657,4.2721,4.2754,4.2803,4.282,4.2785,4.2922,4.2879,4.2933,4.2933,4.2961,4.2959,4.3113,4.2987,4.2986,4.2986,4.2986,0,4.2262,4.2338,4.2368,4.2422,4.2506,4.252,4.2603,4.2629,4.2671,4.2729,4.2726,4.278,4.28,4.2857,4.2872,4.2954,4.297,4.2981,4.2984,4.298,4.2978,4.3001,4.2993,4.299,4.2989,4.2989,4.2988,0,4.2369,4.2392,4.2486,4.2538,4.2553,4.2612,4.2656,4.2708,4.2729,4.2802,4.282,4.2853,4.292,4.2942,4.3023,4.3032,4.3128,4.3125,4.3111,4.311,4.3163,4.3156,4.3335,4.3358,4.3219,4.322,4.3221,0,4.2446,4.2504,4.2562,4.26,4.2629,4.2691,4.2731,4.2747,4.2789,4.285,4.2893,4.2959,4.3013,4.312,4.3151,4.3213,4.321,4.3268,4.3219,4.3213,4.3208,4.3203,4.3208,4.3277,4.3278,4.3279,4.328,0,4.258,4.2588,4.2645,4.2707,4.2754,4.2803,4.285,4.2882,4.2905,4.2951,4.3019,4.3061,4.3144,4.3209,4.3271,4.33,4.3293,4.3296,4.3311,4.3307,4.3295,4.33,4.3133,4.3291,4.329,4.3289,4.3289,4.3288,4.2672,4.2722,4.277,4.2833,4.2871,4.2914,4.2964,4.2991,4.3048,4.3116,4.3122,4.3195,4.3243,4.3326,4.3358,4.3414,4.3398,4.3421,4.3426,4.3431,4.3434,4.3288,4.3426,4.3426,4.3426,4.3426,4.3425,0,4.2803,4.2834,4.2892,4.2957,4.3007,4.2997,4.3049,4.309,4.3154,4.3199,4.3252,4.3329,4.3392,4.3428,4.349,4.3529,4.3527,4.3544,4.354,4.3546,4.3446,4.3425,4.3544,4.3544,4.3544,4.3544,4.3544,4.3544,4.2877,4.296,4.2974,4.3075,4.3105,4.3176,4.3206,4.3246,4.3281,4.3367,4.3419,4.3442,4.3483,4.3548,4.3605,4.3614,4.3636,4.3654,4.3661,4.3566,4.3554,4.3542,4.3522,4.366,4.366,4.3756,4.3757,4.3757]},{"header":{"parameterUnit":"m.s-1","parameterCategory":1,"la1":30.2991,"la2":30.254,"lo1":-89.0895,"lo2":-89.0444,"dy":0.0017,"dx":0.0017,"nx":28,"ny":28,"refTime":"2025-05-20T09:00:00:Z","depth":0,"parameterNumber":3,"parameterNumberName":"V-component_of_WINDS"},"data":[0,0,0,0,0,0,0,0,0,0,0,0,0,0,0,0,0,0,0,0,0,0,0,0,0,0,0,0,0,0,0,0,0,0,0,0,0,0,0,0,0,0,0,0,0,0,0,0,0,0,0,0,0,0,0,0,0,0,4.9719,4.9721,0,4.9896,4.9898,4.99,4.9905,4.9903,4.9901,4.9899,5.0078,5.0084,5.0091,0,0,0,0,0,0,0,0,0,0,0,0,0,4.9382,4.9389,4.9719,4.9721,4.9723,4.9895,4.9898,4.99,4.9906,4.9903,4.9901,4.9898,5.0076,5.0083,5.0092,0,0,0,0,0,0,0,0,0,0,0,0,0,4.9541,4.9391,4.9719,4.9747,4.9751,4.9895,4.9898,4.9901,4.9906,4.9903,4.99,4.9897,5.0073,5.0083,5.0093,5.0219,0,0,5.0124,5.0128,0,0,0,0,0,0,0,0,4.9532,4.9553,4.9741,4.9745,4.975,4.9875,4.9845,5.0008,4.9907,4.9847,4.9899,4.9895,5.0013,5.0028,5.0068,5.0228,5.0235,5.0125,5.0131,5.0135,5.0138,0,0,0,0,0,0,0,4.9521,4.9545,4.9789,4.9743,4.9749,4.975,4.9768,4.9876,4.9946,4.9852,4.9853,4.9874,5.0015,5.0058,5.0072,5.0238,5.0124,5.0133,5.0139,5.0143,5.0509,5.0512,0,0,0,0,0,0,4.9505,4.9536,4.9783,4.9794,4.9631,4.9758,4.9779,4.9838,4.9945,4.9958,4.9877,4.9874,5.0042,5.006,5.0078,5.0233,5.0135,5.0144,5.015,5.0505,5.0509,5.0513,0,0,0,0,0,0,4.9497,4.9527,4.9776,4.9666,4.9697,4.9767,4.9834,4.9844,4.9887,4.9963,4.9975,4.9908,5.0041,5.0064,5.0184,5.0239,5.0149,5.0158,5.0501,5.0506,5.0511,5.0543,0,0,0,0,0,0,4.9488,4.9524,4.9574,4.9667,4.9703,4.988,4.9837,4.9849,4.9905,4.9902,4.9996,5.0008,5.004,5.0169,5.0194,5.0251,5.0166,5.0496,5.0503,5.051,5.0537,5.0549,5.0559,0,0,0,0,0,4.9476,4.9576,4.9576,4.9606,4.9767,4.9883,4.9904,4.9939,4.9909,4.9959,5.0008,5.0005,5.0229,5.0181,5.021,5.0271,5.0493,5.0501,5.0509,5.0532,5.0546,5.0558,0,0,0,0,0,0,4.9487,4.9588,4.959,4.9724,4.9795,4.9884,4.9949,4.9953,5.0034,5.0028,5.0067,5.0088,5.0207,5.0251,5.0196,5.0398,5.0357,5.0371,5.0365,5.0379,5.0389,5.0376,5.0175,0,0,0,0,0,4.9505,4.9592,4.9675,4.9785,4.982,4.9878,4.993,4.9951,5.0026,5.0056,5.0113,5.0185,5.0271,5.0328,5.0411,5.0543,5.0563,5.0599,5.061,5.0618,5.063,5.0701,5.0718,5.054,5.054,5.054,0,0,4.9544,4.961,4.9662,4.9789,4.9846,4.9934,4.9904,4.9998,5.0063,5.007,5.0187,5.0231,5.0314,5.044,5.0498,5.048,5.0683,5.0628,5.0634,5.0642,5.0711,5.0728,5.0743,5.0546,5.0545,5.0544,0,0,4.9658,4.9717,4.9814,4.9872,4.996,4.9998,5.0021,5.0109,5.0139,5.0257,5.0263,5.034,5.0488,5.0547,5.0596,5.073,5.073,5.0756,5.0812,5.0881,5.0895,5.0908,5.0955,5.0971,5.0768,5.0768,5.0768,0,4.9695,4.9828,4.9863,4.9958,5.0013,5.0023,5.012,5.0175,5.0285,5.0322,5.03,5.0485,5.0541,5.0681,5.0713,5.0753,5.0779,5.0746,5.089,5.0903,5.0915,5.0961,5.0978,5.077,5.077,5.077,5.0769,0,4.9868,4.996,5.0028,5.0134,5.0196,5.0292,5.034,5.0399,5.0413,5.0452,5.0571,5.0639,5.0736,5.077,5.0785,5.0911,5.0897,5.0882,5.0842,5.0934,5.0977,5.0995,5.0774,5.0773,5.0772,5.0771,0,0,4.9996,5.012,5.0144,5.0191,5.0288,5.0359,5.0454,5.0549,5.0598,5.0673,5.0753,5.0877,5.0864,5.0919,5.0941,5.1001,5.1102,5.0979,5.0981,5.0999,5.1243,5.1254,5.1273,5.1102,5.1106,5.1109,5.1236,0,5.0121,5.0291,5.0325,5.0472,5.0557,5.0566,5.0649,5.0716,5.0754,5.0831,5.0873,5.096,5.0936,5.0969,5.103,5.1077,5.1151,5.1068,5.1176,5.1179,5.1155,5.1296,5.1308,5.1425,5.1253,5.1256,5.1258,0,5.029,5.0369,5.0524,5.0608,5.0645,5.0719,5.0807,5.0881,5.0956,5.098,5.1041,5.1055,5.1153,5.1108,5.1241,5.1184,5.123,5.1259,5.1264,5.1276,5.1224,5.1311,5.1463,5.1481,5.1285,5.1283,5.1281,0,5.0366,5.0512,5.0624,5.0664,5.0765,5.0816,5.086,5.0932,5.0987,5.1064,5.11,5.1187,5.1235,5.1301,5.1338,5.1302,5.1468,5.1427,5.149,5.1489,5.1525,5.1522,5.1687,5.1555,5.1554,5.1554,5.1554,0,5.0502,5.0597,5.0659,5.0728,5.0834,5.087,5.0973,5.1017,5.1081,5.1157,5.117,5.1241,5.1285,5.1362,5.1391,5.1497,5.1518,5.1539,5.1546,5.1538,5.1535,5.1569,5.1561,5.1559,5.1558,5.1557,5.1556,0,5.0606,5.0652,5.0774,5.0859,5.0882,5.0957,5.1028,5.1095,5.1132,5.1228,5.1253,5.1312,5.1403,5.1446,5.1559,5.1578,5.1698,5.1699,5.1673,5.1675,5.1736,5.1729,5.1928,5.1955,5.1805,5.1806,5.1807,0,5.069,5.0763,5.0855,5.0908,5.0953,5.1037,5.1092,5.113,5.1187,5.1278,5.1333,5.1424,5.15,5.1644,5.1696,5.1782,5.1785,5.1849,5.1798,5.1788,5.1786,5.1781,5.1788,5.1858,5.1859,5.186,5.1861,0,5.0833,5.0852,5.0932,5.102,5.1086,5.1156,5.1226,5.1267,5.1316,5.1379,5.1472,5.1531,5.1645,5.1735,5.1824,5.1868,5.1873,5.1877,5.1896,5.1889,5.187,5.1881,5.1697,5.1872,5.1871,5.187,5.187,5.1869,5.093,5.0994,5.1069,5.1157,5.1213,5.1277,5.1344,5.1389,5.1468,5.1565,5.1582,5.1681,5.1752,5.1872,5.1919,5.1996,5.1981,5.2009,5.2016,5.2022,5.2025,5.1858,5.2012,5.2012,5.2012,5.2012,5.2011,0,5.1073,5.1121,5.1202,5.1298,5.1367,5.1366,5.1442,5.1499,5.1586,5.1653,5.1727,5.1833,5.192,5.1979,5.2067,5.2117,5.2121,5.2138,5.2135,5.2145,5.2034,5.2008,5.2134,5.2134,5.2134,5.2133,5.2133,5.2133,5.1156,5.1265,5.1292,5.1428,5.1476,5.1573,5.1617,5.1675,5.1729,5.1847,5.1919,5.1957,5.202,5.2113,5.2192,5.2207,5.2238,5.2256,5.2271,5.2166,5.2153,5.2141,5.2117,5.2263,5.2263,5.2375,5.2376,5.2377]}]]